Location: ?????????
(41.1143°N, 22.7905°E)
Time: 08:46:12
(UTC+00:00)

COSMO-SKYMED 1 - Pass Details

Date: 19 March 2026
Orbit: 576 x 578 km, 97.9° (Epoch: 18 April)

Event Time Altitude Azimuth Distance (km) Brightness Sun altitude
Rises 03:54:44 0° 160° (SSE) 2,779 6.1 -8.3°
Reaches altitude 10° 03:56:53 10° 157° (SSE) 1,884 5.3 -7.9°
Maximum altitude 04:00:56 68° 75° (ENE) 626 2.9 -7.1°
Drops below altitude 10° 04:05:01 10° 353° (N) 1,899 5.1 -6.3°
Sets 04:07:11 0° 351° (N) 2,802 5.9 -5.9°
